DW6757 Weather Reports


time (UTC)temp
C
wind
direction
speed
KPH
gust
KPH
rain 1hr
cm
rain 24hr
cm
rain mn
cm
humidity
%
barometer
mb
20260506215505 27 36 8.0 17.7 0.00 0.00 0.00 73 1008.9
20260506215006 27 39 8.0 17.7 0.00 0.00 0.00 73 1008.8
20260506214504 27 43 8.0 16.1 0.00 0.00 0.00 74 1008.9
20260506214005 27 40 8.0 17.7 0.00 0.00 0.00 74 1008.8
20260506213526 27 35 9.7 17.7 0.00 0.00 0.00 73 1008.7
20260506213004 27 35 9.7 17.7 0.00 0.00 0.00 74 1008.6
20260506212525 28 33 8.0 17.7 0.00 0.00 0.00 73 1008.7
20260506212025 28 34 8.0 16.1 0.00 0.00 0.00 75 1008.7
20260506211504 27 41 8.0 17.7 0.00 0.00 0.00 75 1008.8
20260506211006 27 47 6.4 17.7 0.00 0.00 0.00 76 1008.8
20260506210525 27 42 6.4 17.7 0.00 0.00 0.00 75 1009.0
20260506210005 27 39 8.0 17.7 0.00 0.00 0.00 75 1008.9
20260506205504 27 40 6.4 16.1 0.00 0.00 0.00 75 1008.9
20260506205004 27 39 8.0 16.1 0.00 0.00 0.00 74 1009.0
20260506204504 27 34 8.0 16.1 0.00 0.00 0.00 75 1009.1
20260506204005 28 31 8.0 16.1 0.00 0.00 0.00 74 1009.0
20260506203504 28 33 6.4 22.5 0.00 0.00 0.00 75 1009.1
20260506203005 28 32 8.0 22.5 0.00 0.00 0.00 75 1009.2
20260506202505 28 29 8.0 17.7 0.00 0.00 0.00 74 1009.1
20260506202026 28 31 6.4 16.1 0.00 0.00 0.00 74 1009.1
20260506201504 28 46 6.4 16.1 0.00 0.00 0.00 74 1009.0
20260506201004 28 61 8.0 16.1 0.00 0.00 0.00 75 1009.0
20260506200526 28 71 8.0 16.1 0.00 0.00 0.00 75 1009.0
20260506200004 28 75 4.8 16.1 0.00 0.00 0.00 73 1009.0
20260506195504 28 67 4.8 12.9 0.00 0.00 0.00 74 1009.0
20260506195004 28 84 3.2 12.9 0.00 0.00 0.00 74 1009.1
20260506194526 28 86 4.8 14.5 0.00 0.00 0.00 75 1009.0
20260506194025 28 75 6.4 16.1 0.00 0.00 0.00 76 1009.0
20260506193506 28 61 4.8 16.1 0.00 0.00 0.00 76 1009.1
20260506193005 28 63 4.8 11.3 0.00 0.00 0.00 77 1009.1
20260506192504 28 73 6.4 14.5 0.00 0.00 0.00 76 1009.1
20260506192004 28 61 6.4 14.5 0.00 0.00 0.00 76 1009.1
20260506191504 28 56 6.4 14.5 0.00 0.00 0.00 74 1009.1
20260506191005 29 74 3.2 11.3 0.00 0.00 0.00 74 1009.3
20260506190526 29 74 3.2 9.7 0.00 0.00 0.00 72 1009.2
20260506190005 29 100 3.2 8.0 0.00 0.00 0.00 75 1009.3
20260506185504 28 153 4.8 9.7 0.00 0.00 0.00 73 1009.4
20260506185025 28 152 4.8 9.7 0.00 0.00 0.00 74 1009.4
20260506184505 28 92 3.2 11.3 0.00 0.00 0.00 74 1009.3
20260506184004 28 93 3.2 11.3 0.00 0.00 0.00 72 1009.4
20260506183505 28 107 3.2 9.7 0.00 0.00 0.00 74 1009.6
20260506183005 28 95 3.2 9.7 0.00 0.00 0.00 77 1009.6
20260506182504 28 79 3.2 9.7 0.00 0.00 0.00 76 1009.7
20260506182025 27 64 4.8 11.3 0.00 0.00 0.00 77 1009.9
20260506181525 27 57 3.2 11.3 0.00 0.00 0.00 77 1009.8
20260506181004 27 67 3.2 6.4 0.00 0.00 0.00 80 1009.9
20260506180504 27 73 3.2 6.4 0.00 0.00 0.00 79 1010.0
20260506180005 27 60 3.2 6.4 0.00 0.00 0.00 81 1010.0
20260506175526 27 48 3.2 8.0 0.00 0.00 0.00 81 1010.1
20260506175004 27 59 4.8 11.3 0.00 0.00 0.00 81 1010.1
20260506174504 27 56 4.8 11.3 0.00 0.00 0.00 81 1010.2
20260506174006 27 72 4.8 12.9 0.00 0.00 0.00 82 1010.2
20260506173525 27 78 6.4 12.9 0.00 0.00 0.00 82 1010.3
20260506173005 27 70 6.4 12.9 0.00 0.00 0.00 82 1010.4
20260506172504 27 66 6.4 14.5 0.00 0.00 0.00 83 1010.4
20260506172025 27 60 8.0 16.1 0.00 0.00 0.00 82 1010.4
20260506171506 27 64 8.0 16.1 0.00 0.00 0.00 84 1010.4
20260506171005 26 59 6.4 14.5 0.00 0.00 0.00 86 1010.5
20260506170504 26 46 4.8 14.5 0.00 0.00 0.00 86 1010.4
20260506170005 26 44 4.8 12.9 0.00 0.00 0.00 86 1010.5
20260506165525 26 50 4.8 12.9 0.00 0.00 0.00 87 1010.5
20260506165025 25 49 4.8 12.9 0.00 0.00 0.00 87 1010.6
20260506164504 25 33 6.4 12.9 0.00 0.00 0.00 87 1010.7
20260506164004 26 36 4.8 11.3 0.00 0.00 0.00 87 1010.6
20260506163504 25 43 6.4 14.5 0.00 0.00 0.00 87 1010.7
20260506163005 25 39 4.8 14.5 0.00 0.00 0.00 88 1010.7
20260506162504 25 52 6.4 12.9 0.00 0.00 0.00 88 1010.7
20260506162025 25 60 4.8 12.9 0.00 0.00 0.00 88 1010.6
20260506161504 25 53 3.2 8.0 0.00 0.00 0.00 89 1010.7
20260506161004 25 57 3.2 6.4 0.00 0.00 0.00 89 1010.7
20260506160504 25 71 4.8 11.3 0.00 0.00 0.00 89 1010.5
20260506160004 25 75 4.8 11.3 0.00 0.00 0.00 89 1010.4
20260506155504 25 66 4.8 9.7 0.00 0.00 0.00 89 1010.4
20260506155025 25 69 4.8 9.7 0.00 0.00 0.00 89 1010.3
20260506154504 25 77 4.8 9.7 0.00 0.00 0.00 90 1010.0
20260506154026 25 77 4.8 8.0 0.00 0.00 0.00 90 1009.9
20260506153504 25 77 4.8 8.0 0.00 0.00 0.00 90 1009.9
20260506153004 25 76 3.2 6.4 0.00 0.00 0.00 90 1009.8
20260506152504 25 73 3.2 9.7 0.00 0.00 0.00 90 1009.8
20260506152025 25 69 4.8 9.7 0.00 0.00 0.00 90 1009.8
20260506151504 25 66 4.8 8.0 0.00 0.00 0.00 91 1009.8
20260506151005 25 71 3.2 6.4 0.00 0.00 0.00 91 1009.7
20260506150504 24 74 3.2 6.4 0.00 0.00 0.00 91 1009.6
20260506150005 24 70 3.2 6.4 0.00 0.00 0.00 91 1009.6
20260506145504 24 73 3.2 6.4 0.00 0.00 0.00 92 1009.6
20260506145026 24 82 3.2 6.4 0.00 0.00 0.00 92 1009.7
20260506144504 24 79 1.6 6.4 0.00 0.00 0.00 93 1009.6
20260506144005 24 68 1.6 3.2 0.00 0.00 0.00 93 1009.5
20260506143504 23 68 0.0 3.2 0.00 0.00 0.00 93 1009.4
20260506143004 23 72 1.6 6.4 0.00 0.00 0.00 93 1009.3
20260506142505 23 77 3.2 6.4 0.00 0.00 0.00 93 1009.2
20260506142004 23 61 1.6 4.8 0.00 0.00 0.00 93 1009.3
20260506141504 23 34 1.6 4.8 0.00 0.00 0.00 93 1009.2
20260506141005 23 56 1.6 4.8 0.00 0.00 0.00 93 1009.0
20260506140504 23 56 1.6 6.4 0.00 0.00 0.00 93 1009.1
20260506140005 23 52 1.6 6.4 0.00 0.00 0.00 93 1008.8
20260506135525 23 68 1.6 3.2 0.00 0.00 0.00 93 1008.8
20260506135004 23 69 1.6 4.8 0.00 0.00 0.00 93 1008.5
20260506134504 23 73 3.2 6.4 0.00 0.00 0.00 93 1008.5
20260506134004 23 68 3.2 6.4 0.00 0.00 0.00 93 1008.4
20260506133504 23 68 1.6 4.8 0.00 0.00 0.00 93 1008.3
20260506133004 23 77 1.6 4.8 0.00 0.00 0.00 94 1008.5
20260506132525 23 76 3.2 4.8 0.00 0.00 0.00 94 1008.5
20260506132005 23 76 3.2 4.8 0.00 0.00 0.00 94 1008.5
20260506131504 23 84 3.2 6.4 0.00 0.00 0.00 94 1008.3
20260506131025 23 92 3.2 9.7 0.00 0.00 0.00 94 1008.3
20260506130525 23 89 3.2 9.7 0.00 0.00 0.00 94 1008.3
20260506130005 23 107 1.6 6.4 0.00 0.00 0.00 94 1008.5
20260506125504 23 161 0.0 6.4 0.00 0.00 0.00 94 1008.5
20260506125004 23 161 0.0 1.6 0.00 0.00 0.00 94 1008.5
20260506124526 23 161 0.0 1.6 0.00 0.00 0.00 94 1008.5
20260506124006 23 155 1.6 6.4 0.00 0.00 0.00 94 1008.5
20260506123504 23 151 3.2 6.4 0.00 0.00 0.00 94 1008.5
20260506123004 23 150 1.6 6.4 0.00 0.00 0.00 94 1008.3
20260506122525 23 161 0.0 3.2 0.00 0.00 0.00 94 1008.1
20260506122005 23 161 0.0 1.6 0.00 0.00 0.00 94 1008.1
20260506121525 22 161 0.0 3.2 0.00 0.00 0.00 94 1008.1
20260506121004 22 161 0.0 3.2 0.00 0.00 0.00 94 1008.2
20260506120504 22 161 0.0 3.2 0.00 0.00 0.00 94 1008.2
20260506120005 22 161 0.0 3.2 0.00 0.00 0.00 94 1008.1
20260506115504 22 161 0.0 3.2 0.00 0.00 0.00 93 1008.1
20260506115025 22 161 0.0 3.2 0.00 0.00 0.00 93 1008.2
20260506114504 22 0 0.0 0.0 0.00 0.00 0.00 93 1008.3
20260506114005 22 0 0.0 0.0 0.00 0.00 0.00 93 1008.2
20260506113504 22 161 0.0 1.6 0.00 0.00 0.00 93 1008.1
20260506113025 22 161 0.0 1.6 0.00 0.00 0.00 93 1008.1
20260506112504 22 161 0.0 1.6 0.00 0.00 0.00 93 1008.2
20260506112004 23 161 0.0 1.6 0.00 0.00 0.00 93 1008.1
20260506111504 23 161 0.0 3.2 0.00 0.00 0.00 93 1008.0
20260506111004 23 161 1.6 3.2 0.00 0.00 0.00 93 1008.0
20260506110504 23 160 1.6 6.4 0.00 0.00 0.00 93 1008.0
20260506110004 23 132 1.6 6.4 0.00 0.00 0.00 93 1008.0
20260506105504 23 81 0.0 3.2 0.00 0.00 0.00 92 1008.0
20260506105004 23 144 0.0 3.2 0.00 0.00 0.00 92 1008.0
20260506104525 23 176 1.6 3.2 0.00 0.00 0.00 92 1007.9
20260506104004 23 176 1.6 3.2 0.00 0.00 0.00 92 1007.8
20260506103504 23 184 1.6 6.4 0.00 0.00 0.00 92 1007.9
20260506103025 23 188 1.6 6.4 0.00 0.00 0.00 92 1007.8
20260506102504 23 194 1.6 4.8 0.00 0.00 0.00 92 1007.7
20260506102004 23 187 3.2 9.7 0.00 0.00 0.00 91 1007.8
20260506101504 23 177 4.8 9.7 0.00 0.00 0.00 91 1007.8
20260506101025 23 173 4.8 9.7 0.00 0.00 0.00 91 1007.8
20260506100504 23 177 6.4 14.5 0.00 0.00 0.00 91 1007.7
20260506100004 23 181 6.4 14.5 0.00 0.00 0.00 91 1007.6
20260506095504 23 183 6.4 12.9 0.00 0.00 0.00 91 1007.7
20260506095004 23 177 4.8 11.3 0.00 0.00 0.00 91 1007.7
20260506094503 23 171 4.8 12.9 0.00 0.00 0.00 91 1007.6
20260506094004 23 171 6.4 12.9 0.00 0.00 0.00 91 1007.6
20260506093504 23 174 6.4 11.3 0.00 0.00 0.00 91 1007.6
20260506093004 23 173 6.4 11.3 0.00 0.00 0.00 91 1007.6
20260506092504 23 169 4.8 11.3 0.00 0.00 0.00 90 1007.6
20260506092004 23 169 6.4 12.9 0.00 0.00 0.00 90 1007.7
20260506091525 23 167 6.4 12.9 0.00 0.00 0.00 90 1007.7
20260506091025 23 172 6.4 11.3 0.00 0.00 0.00 90 1007.8
20260506090504 23 177 4.8 11.3 0.00 0.00 0.00 90 1007.8
20260506090004 23 170 4.8 11.3 0.00 0.00 0.00 90 1007.7
20260506085504 23 169 4.8 11.3 0.00 0.00 0.00 90 1007.8
20260506085004 23 173 4.8 9.7 0.00 0.00 0.00 90 1007.7
20260506084525 23 174 4.8 9.7 0.00 0.00 0.00 89 1007.8
20260506084004 24 169 4.8 9.7 0.00 0.00 0.00 89 1007.8
20260506083525 24 165 4.8 14.5 0.00 0.00 0.00 89 1007.8
20260506083025 24 165 4.8 14.5 0.00 0.00 0.00 89 1007.6
20260506082525 24 167 4.8 9.7 0.00 0.00 0.00 89 1007.7
20260506082004 24 171 4.8 9.7 0.00 0.00 0.00 89 1007.7
20260506081505 24 177 6.4 11.3 0.00 0.00 0.00 89 1007.7
20260506081004 24 177 6.4 14.5 0.00 0.00 0.00 89 1007.6
20260506080504 24 178 6.4 14.5 0.00 0.00 0.00 89 1007.5
20260506073504 24 169 6.4 14.5 0.00 0.00 0.00 87 1008.0
20260506073004 24 166 4.8 11.3 0.00 0.00 0.00 88 1008.0
20260506072504 24 167 6.4 12.9 0.00 0.00 0.00 88 1007.9
20260506072004 24 163 6.4 12.9 0.00 0.00 0.00 87 1008.1
20260506071504 24 164 8.0 12.9 0.00 0.00 0.00 88 1008.1
20260506071004 24 166 6.4 12.9 0.00 0.00 0.00 88 1008.1
20260506070504 24 164 6.4 12.9 0.00 0.00 0.00 88 1008.1
20260506062504 24 167 9.7 22.5 0.00 0.00 0.00 88 1008.1
20260506062004 24 164 9.7 22.5 0.00 0.00 0.00 88 1008.1
20260506061504 24 161 8.0 17.7 0.00 0.00 0.00 88 1008.2
20260506061004 24 168 8.0 14.5 0.00 0.00 0.00 89 1008.2
20260506060504 24 164 8.0 14.5 0.00 0.00 0.00 89 1008.2
20260506051024 25 154 8.0 16.1 0.00 0.00 0.00 87 1008.1
20260506050503 25 157 8.0 22.5 0.00 0.00 0.00 87 1008.0
20260506045004 25 156 6.4 14.5 0.00 0.00 0.00 87 1008.2
20260506044504 25 155 6.4 14.5 0.00 0.00 0.00 87 1008.3
20260506044004 24 150 6.4 11.3 0.00 0.00 0.00 87 1008.2
20260506043503 24 146 6.4 14.5 0.00 0.00 0.00 87 1008.3
20260506043004 25 151 8.0 14.5 0.00 0.00 0.00 87 1008.3
20260506042504 25 149 8.0 12.9 0.00 0.00 0.00 87 1008.1
20260506042003 25 143 8.0 14.5 0.00 0.00 0.00 87 1008.0
20260506041503 25 144 8.0 16.1 0.00 0.00 0.00 87 1008.1
20260506041004 25 146 6.4 16.1 0.00 0.00 0.00 87 1008.1
20260506040503 25 152 6.4 17.7 0.00 0.00 0.00 87 1008.1
20260506040004 25 147 8.0 17.7 0.00 0.00 0.00 86 1008.0
20260506035504 25 145 8.0 16.1 0.00 0.00 0.00 86 1007.9
20260506035004 25 147 9.7 16.1 0.00 0.00 0.00 86 1007.7
20260506034504 25 146 9.7 17.7 0.00 0.00 0.00 86 1007.8
20260506034003 25 146 9.7 17.7 0.00 0.00 0.00 86 1007.6
20260506033503 25 149 9.7 22.5 0.00 0.00 0.00 86 1007.5
20260506033025 25 150 9.7 22.5 0.00 0.00 0.00 86 1007.5
20260506032503 25 147 9.7 16.1 0.00 0.00 0.00 86 1007.4
20260506032004 25 148 9.7 19.3 0.00 0.00 0.00 85 1007.5
20260506031504 25 146 9.7 19.3 0.00 0.00 0.00 85 1007.4
20260506031003 25 145 8.0 19.3 0.00 0.00 0.00 85 1007.3
20260506030503 25 147 8.0 14.5 0.00 0.00 0.00 85 1007.3
20260506030005 25 149 8.0 14.5 0.00 0.00 0.00 84 1007.2
20260506025525 25 148 8.0 14.5 0.00 0.00 0.00 84 1007.2
20260506025004 25 146 8.0 14.5 0.00 0.00 0.00 84 1007.2
20260506024504 26 144 8.0 12.9 0.00 0.00 0.00 84 1007.1
20260506024003 26 146 6.4 11.3 0.00 0.00 0.00 83 1007.0
20260506023525 26 152 6.4 14.5 0.00 0.00 0.00 83 1007.1
20260506023004 26 151 8.0 17.7 0.00 0.00 0.00 83 1007.1
20260506022503 26 148 8.0 17.7 0.00 0.00 0.00 83 1006.9
20260506022004 26 144 6.4 17.7 0.00 0.00 0.00 83 1006.6
20260506021504 26 136 4.8 9.7 0.00 0.00 0.00 83 1006.6
20260506021004 26 137 4.8 12.9 0.00 0.00 0.00 83 1006.5
20260506020503 26 138 6.4 16.1 0.00 0.00 0.00 82 1006.4
20260506020004 26 137 6.4 16.1 0.00 0.00 0.00 82 1006.4
20260506015524 26 134 6.4 12.9 0.00 0.00 0.00 81 1006.5
20260506015003 26 134 6.4 14.5 0.00 0.00 0.00 81 1006.4
20260506014504 26 133 6.4 14.5 0.00 0.00 0.00 80 1006.4
20260506014003 27 139 6.4 14.5 0.00 0.00 0.00 80 1006.3
20260506013504 27 141 6.4 14.5 0.00 0.00 0.00 80 1006.3
20260506013003 27 129 4.8 9.7 0.00 0.00 0.00 80 1006.2
20260506012505 27 135 4.8 12.9 0.00 0.00 0.00 79 1006.1
20260506012026 27 140 6.4 16.1 0.00 0.00 0.00 79 1006.1
20260506011505 27 139 6.4 16.1 0.00 0.00 0.00 79 1006.0
20260506011026 27 132 4.8 11.3 0.00 0.00 0.00 79 1006.0
20260506010505 27 130 4.8 16.1 0.00 0.00 0.00 78 1005.9
20260506010005 27 128 4.8 16.1 0.00 0.00 0.00 78 1005.8
20260506005526 27 127 4.8 11.3 0.00 0.00 0.00 77 1005.8
20260506005005 28 129 4.8 11.3 0.00 0.00 0.00 77 1005.7
20260506004505 28 121 4.8 11.3 0.00 0.00 0.00 76 1005.7
20260506004005 28 114 3.2 11.3 0.00 0.00 0.00 75 1005.6
20260506003527 28 103 3.2 8.0 0.00 0.00 0.00 75 1005.6
20260506003005 28 118 3.2 8.0 0.00 0.00 0.00 74 1005.6
20260506002504 28 136 3.2 9.7 0.00 0.00 0.00 74 1005.5
20260506002004 28 144 4.8 11.3 0.00 0.00 0.00 73 1005.5
20260506001504 28 144 4.8 11.3 0.00 0.00 0.00 73 1005.4
20260506001005 28 140 4.8 12.9 0.00 0.00 0.00 72 1005.5
20260506000505 28 136 4.8 12.9 0.00 0.00 0.00 72 1005.4
20260506000004 29 134 4.8 11.3 0.00 0.00 0.00 71 1005.2
20260505235505 29 139 6.4 12.9 0.00 0.00 0.00 72 1005.2
20260505235025 29 141 6.4 12.9 0.00 0.00 0.00 72 1005.1
20260505234505 29 141 6.4 11.3 0.00 0.00 0.00 71 1005.0
20260505234026 29 142 6.4 11.3 0.00 0.00 0.00 71 1005.1
20260505233526 29 147 6.4 11.3 0.00 0.00 0.00 71 1005.1
20260505233005 29 153 6.4 11.3 0.00 0.00 0.00 71 1005.2
20260505232505 29 151 8.0 14.5 0.00 0.00 0.00 71 1005.1
20260505232004 30 142 8.0 14.5 0.00 0.00 0.00 70 1005.2
20260505231505 30 139 6.4 14.5 0.00 0.00 0.00 70 1005.2
20260505231005 30 159 8.0 14.5 0.00 0.00 0.00 69 1005.2
20260505230505 30 160 9.7 14.5 0.00 0.00 0.00 69 1005.2
20260505230026 30 150 8.0 14.5 0.00 0.00 0.00 69 1005.1
20260505225505 30 154 8.0 14.5 0.00 0.00 0.00 69 1005.1
20260505225005 30 155 8.0 17.7 0.00 0.00 0.00 72 1005.1
20260505224505 29 141 8.0 17.7 0.00 0.00 0.00 71 1005.2
20260505224026 29 136 8.0 16.1 0.00 0.00 0.00 71 1005.2
20260505223505 29 138 8.0 14.5 0.00 0.00 0.00 71 1005.3
20260505223005 30 138 6.4 16.1 0.00 0.00 0.00 71 1005.3
20260505222505 30 138 6.4 16.1 0.00 0.00 0.00 70 1005.4
20260505222005 30 145 6.4 14.5 0.00 0.00 0.00 70 1005.5
20260505221504 30 145 6.4 14.5 0.00 0.00 0.00 72 1005.4
20260505221005 29 143 6.4 14.5 0.00 0.00 0.00 71 1005.4
20260505220505 29 143 6.4 12.9 0.00 0.00 0.00 72 1005.5
20260505220005 30 159 8.0 14.5 0.00 0.00 0.00 71 1005.4